Location: New Canada
(47.1017°N, 68.5042°W)
Time: 21:48:26
(UTC+00:00)

RS-44 - Pass Details

Date: 07 April 2023
Orbit: 1175 x 1510 km, 82.5° (Epoch: 02 June)

Event Time Altitude Azimuth Distance (km) Brightness Sun altitude
Rises 04:12:54 0° 353° (N) 4,436 ? -35.9°
Reaches altitude 10° 04:15:50 10° 359° (N) 3,502 ? -36.0°
Maximum altitude 04:23:56 47° 72° (ENE) 1,874 ? -36.1°
Enters shadow 04:24:42 46° 86° (E) 1,900 ? -36.1°
